This demonstration page uses our WeatherBlox Daily Observations layout. Learn more.

Left ArrowRight Arrow

Hourly Observations for October 13, 2021

Temp ( °F °C ) Dew Point ( °F °C ) Humidity (%) Winds ( mph kmh ) Pressure ( in mb ) Visibility ( mi km ) Precip ( " mm )
12:15 am 00:15 Cloudy 63 17 63 17 100 100 N N/A 30.08 1018 10 16 N/A
12:35 am 00:35 Cloudy 63 17 63 17 100 100 N N/A 30.08 1018 10 16 N/A
12:55 am 00:55 Cloudy 63 17 63 17 100 100 N N/A 30.08 1018 10 16 N/A
1:15 am 01:15 Cloudy 63 17 63 17 100 100 N N/A 30.07 1018 10 16 N/A
1:35 am 01:35 Mostly Cloudy 63 17 63 17 100 100 N N/A 30.07 1018 10 16 N/A
1:55 am 01:55 Partly Cloudy 63 17 63 17 100 100 N N/A 30.07 1018 10 16 N/A
2:15 am 02:15 Clear 63 17 63 17 100 100 N N/A 30.07 1018 7 11 N/A
2:35 am 02:35 Partly Cloudy 61 16 61 16 100 100 N N/A 30.07 1018 7 11 N/A
2:55 am 02:55 Mostly Cloudy with Mist and Fog 61 16 61 16 100 100 N N/A 30.08 1019 4 6 N/A
3:15 am 03:15 Cloudy with Mist and Fog 61 16 61 16 100 100 N N/A 30.07 1018 4 6 N/A
3:35 am 03:35 Cloudy with Mist and Fog 61 16 61 16 100 100 N N/A 30.06 1018 5 8 N/A
3:55 am 03:55 Cloudy with Mist and Fog 61 16 61 16 100 100 N N/A 30.06 1018 3 4 N/A
9:55 am 09:55 Cloudy with Mist and Fog 63 17 63 17 100 100 N N/A 30.11 1019 4 6 N/A
10:15 am 10:15 Cloudy 64 18 64 18 100 100 N N/A 30.09 1019 7 11 N/A
10:35 am 10:35 Mostly Cloudy 68 20 64 18 88 88 N N/A 30.09 1019 10 16 N/A
10:55 am 10:55 Cloudy 68 20 64 18 88 88 WSW 5 7 30.09 1019 10 16 N/A
11:15 am 11:15 Cloudy 68 20 64 18 88 88 W 3 6 30.08 1019 10 16 N/A
11:35 am 11:35 Cloudy 70 21 64 18 83 83 WSW 5 7 30.08 1019 10 16 N/A
11:55 am 11:55 Cloudy 70 21 64 18 83 83 WSW 3 6 30.07 1018 10 16 N/A
12:15 pm 12:15 Cloudy 70 21 64 18 83 83 N N/A 30.07 1018 10 16 N/A
12:35 pm 12:35 Cloudy 70 21 64 18 83 83 WNW 7 11 30.07 1018 10 16 N/A
12:55 pm 12:55 Cloudy 72 22 66 19 83 83 W 5 7 30.05 1018 10 16 N/A
1:15 pm 13:15 Cloudy 72 22 64 18 78 78 N N/A 30.04 1017 10 16 N/A
1:35 pm 13:35 Cloudy 72 22 64 18 78 78 N N/A 30.04 1017 10 16 N/A
1:55 pm 13:55 Cloudy 73 23 66 19 78 78 N N/A 30.03 1017 10 16 N/A
2:15 pm 14:15 Cloudy 73 23 66 19 78 78 W 5 7 30.03 1017 10 16 N/A
2:35 pm 14:35 Partly Cloudy 73 23 66 19 78 78 N N/A 30.02 1016 10 16 N/A
2:55 pm 14:55 Partly Cloudy 73 23 66 19 78 78 N N/A 30.01 1016 10 16 N/A
3:15 pm 15:15 Mostly Cloudy 75 24 66 19 74 74 N N/A 30.01 1016 10 16 N/A
3:35 pm 15:35 Partly Cloudy 75 24 66 19 74 74 N N/A 30.01 1016 10 16 N/A
3:55 pm 15:55 Partly Cloudy 77 25 68 20 74 74 N N/A 30.00 1016 10 16 N/A
4:15 pm 16:15 Sunny 75 24 66 19 74 74 N N/A 30.00 1016 10 16 N/A
4:35 pm 16:35 Partly Cloudy 75 24 66 19 74 74 SSE 3 6 30.00 1016 10 16 N/A
4:55 pm 16:55 Partly Cloudy 77 25 68 20 74 74 SW 3 6 29.99 1016 10 16 N/A
5:15 pm 17:15 Partly Cloudy 75 24 66 19 74 74 SSE 5 7 30.00 1016 10 16 N/A
5:35 pm 17:35 Partly Cloudy 75 24 68 20 78 78 S 5 7 30.00 1016 10 16 N/A
5:55 pm 17:55 Partly Cloudy 75 24 66 19 74 74 S 5 7 29.99 1015 10 16 N/A
6:15 pm 18:15 Sunny 73 23 68 20 83 83 S 3 6 30.00 1016 10 16 N/A
6:35 pm 18:35 Partly Cloudy 72 22 68 20 88 88 S 3 6 30.00 1016 10 16 N/A
6:55 pm 18:55 Partly Cloudy 72 22 68 20 88 88 SW 3 6 30.00 1016 10 16 N/A
7:15 pm 19:15 Mostly Cloudy 70 21 68 20 94 94 SW 5 7 30.01 1016 10 16 N/A
7:35 pm 19:35 Mostly Cloudy 70 21 68 20 94 94 N N/A 30.01 1016 10 16 N/A
7:55 pm 19:55 Partly Cloudy 70 21 68 20 94 94 N N/A 30.02 1017 10 16 N/A
8:15 pm 20:15 Partly Cloudy 68 20 66 19 94 94 SSW 5 7 30.02 1017 10 16 N/A
8:35 pm 20:35 Clear 68 20 66 19 94 94 SW 5 7 30.03 1017 10 16 N/A
8:55 pm 20:55 Clear 68 20 66 19 94 94 S 3 6 30.03 1017 10 16 N/A
9:15 pm 21:15 Clear 68 20 66 19 94 94 N N/A 30.03 1017 10 16 N/A
9:35 pm 21:35 Clear 68 20 66 19 94 94 S 3 6 30.03 1017 10 16 N/A
9:55 pm 21:55 Clear 64 18 64 18 100 100 SSW 5 7 30.03 1017 10 16 N/A
10:15 pm 22:15 Clear 64 18 64 18 100 100 SW 3 6 30.03 1017 10 16 N/A
10:35 pm 22:35 Clear 64 18 64 18 100 100 SW 3 6 30.03 1017 10 16 N/A
10:55 pm 22:55 Clear 64 18 64 18 100 100 N N/A 30.03 1017 10 16 N/A
11:15 pm 23:15 Clear 64 18 64 18 100 100 N N/A 30.03 1017 10 16 N/A
11:35 pm 23:35 Clear 63 17 63 17 100 100 N N/A 30.03 1017 10 16 N/A
11:55 pm 23:55 Clear with Mist and Fog 63 17 63 17 100 100 N N/A 30.03 1017 5 8 N/A

Powered by AerisWeather